Regional Weather Roundup
Issued by NWS

Home | Current Version | Previous Version | Graphics & Text | Print | Product List | Glossary On
Versions: 1 2 3 4 5 6 7 8 9 10 11 12 13 14 15 16 17 18 19 20 21 22 23 24 25 26 27 28
000
ASUS45 KSLC 241910
RWRUT

UTAH REGIONAL WEATHER ROUNDUP
NATIONAL WEATHER SERVICE SALT LAKE CITY UT
100 PM MDT SUN JUL 24 2016

UTZ001>011-023>025-242000-

NORTHERN UTAH

CITY           SKY/WX    TMP DP  RH WIND       PRES   REMARKS
BRIGHAM CITY     N/A     86  26  11 W3        30.12F
HILL AFB       SUNNY     85  36  17 N6        30.14F
LOGAN          SUNNY     82  35  18 MISG      30.14F
OGDEN          SUNNY     87  35  15 NW7       30.12F
PROVO AIRPORT  MOSUNNY   84  43  23 S7        30.13F
SALT LAKE CITY MOSUNNY   88  36  15 N7        30.10F
VERNAL         SUNNY     91  37  15 VRB6      30.14F
WENDOVER       SUNNY     82  28  14 SE6       30.13F
HEBER CITY     SUNNY     82  27  13 CALM      30.17F

$$

UTZ012>022-026-027-242000-

SOUTHERN/CENTRAL UTAH

CITY           SKY/WX    TMP DP  RH WIND       PRES   REMARKS
BLANDING       SUNNY     90  41  17 SW5       30.26F
BRYCE CANYON   MOSUNNY   87  26  11 S12       30.34S
CEDAR CITY     SUNNY     92  38  15 NW8       30.16F
DELTA          SUNNY     88  27  11 N3        30.13S
MILFORD        SUNNY     91  27  10 VRB6      30.13F
MOAB/CYNLANDS  SUNNY     98  41  14 N9        30.05F HX  93
PRICE          SUNNY     91  36  14 VRB7      30.17F
ST GEORGE      CLEAR    100  50  18 W9        29.96S HX  97
KANAB          SUNNY     97  43  15 SW9       30.13  HX  92

$$

REGIONAL REPORTS     COLORADO/ARIZONA

CITY           SKY/WX    TMP DP  RH WIND       PRES   REMARKS
CRAIG, CO      SUNNY     88  36  15 VRB5      30.22F
GRAND JUNCTION SUNNY     94  40  15 VRB3      30.08F HX  90
RIFLE          SUNNY     90  41  18 CALM      30.15F
MONTROSE       SUNNY     90  43  19 VRB3      30.18F
CORTEZ         SUNNY     92  41  17 VRB7      30.19F
PAGE, AZ       SUNNY     99  40  13 NW6       30.04F HX  94
GRAND CANYON   SUNNY     89  46  22 SW12G20   30.29F
KINGMAN        SUNNY     96  50  20 SW24G32   30.06S HX  93
FLAGSTAFF      MOSUNNY   82  49  31 SW10G20   30.33F

$$

REGIONAL REPORTS    NEVADA/IDAHO/WYOMING

CITY           SKY/WX    TMP DP  RH WIND       PRES   REMARKS
LAS VEGAS, NV  SUNNY    104  49  15 SE8G21    29.84F HX 101
ELY            SUNNY     85  26  11 VRB5      30.21F
ELKO           SUNNY     86  23  10 SE6       30.15F
POCATELLO, ID  SUNNY     80  38  22 NW7       30.17F
BURLEY         SUNNY     78  43  28 SW6       30.14F
EVANSTON, WY   SUNNY     82  21  10 SW10G17   30.30F
ROCK SPRINGS   SUNNY     82  26  13 VRB3      30.28F
KEMMERER         N/A     81  21  11 W13G22    30.32S

$$




USA.gov is the U.S. government's official web portal to all federal, state and local government web resources and services.